TimeCEST,TemperatureF,Dew PointF,Humidity,Sea Level PressureIn,VisibilityMPH,Wind Direction,Wind SpeedMPH,Gust SpeedMPH,PrecipitationIn,Events,Conditions,WindDirDegrees,DateUTC
12:45 AM,64.4,64.4,100,29.92,6.2,SW,5.8,-,N/A,Thunderstorm,Thunderstorm,230,2013-08-28 22:45:00
1:45 AM,62.6,62.6,100,29.95,3.1,WSW,5.8,-,N/A,Rain,Light Rain Showers,250,2013-08-28 23:45:00
1:53 AM,62.6,62.6,100,29.95,5.0,West,6.9,-,N/A,Thunderstorm,Thunderstorm,260,2013-08-28 23:53:00
2:00 AM,63,63,100,29.93,3,WSW,6.7,,,Rain,Light Rain Showers,250,2013-08-29 00:00:00
2:19 AM,62.6,62.6,100,29.95,6.2,West,5.8,-,N/A,Rain-Thunderstorm,Thunderstorms and Rain,270,2013-08-29 00:19:00
2:45 AM,62.6,62.6,100,29.95,4.3,WNW,4.6,-,N/A,Rain-Thunderstorm,Thunderstorms and Rain,290,2013-08-29 00:45:00
3:45 AM,62.6,60.8,94,29.95,5.0,WNW,4.6,-,N/A,Rain,Light Rain Showers,290,2013-08-29 01:45:00
4:45 AM,60.8,60.8,100,29.95,3.1,West,8.1,-,N/A,,Mostly Cloudy,280,2013-08-29 02:45:00
5:45 AM,60.8,60.8,100,29.95,2.5,NW,5.8,-,N/A,,Overcast,310,2013-08-29 03:45:00
6:15 AM,60.8,60.8,100,29.98,2.5,NW,4.6,-,N/A,,Overcast,310,2013-08-29 04:15:00
6:45 AM,60.8,60.8,100,29.98,2.5,WNW,4.6,-,N/A,,Overcast,300,2013-08-29 04:45:00
7:15 AM,62.6,62.6,100,29.98,-9999.0,WNW,4.6,-,N/A,,Mostly Cloudy,290,2013-08-29 05:15:00
7:45 AM,62.6,62.6,100,29.98,2.5,WNW,5.8,-,N/A,,Mostly Cloudy,290,2013-08-29 05:45:00
8:00 AM,63,63,100,29.97,2,WNW,6.7,,,,Mist,290,2013-08-29 06:00:00
8:15 AM,62.6,62.6,100,29.98,2.5,NW,5.8,-,N/A,,Mostly Cloudy,310,2013-08-29 06:15:00
8:45 AM,64.4,62.6,94,30.01,2.8,NW,4.6,-,N/A,,Mostly Cloudy,310,2013-08-29 06:45:00
9:15 AM,64.4,62.6,94,30.01,2.8,NW,5.8,-,N/A,,Overcast,320,2013-08-29 07:15:00
9:45 AM,66.2,62.6,88,30.01,3.1,NW,6.9,-,N/A,,Overcast,310,2013-08-29 07:45:00
10:15 AM,66.2,62.6,88,30.04,3.7,NW,9.2,-,N/A,,Scattered Clouds,320,2013-08-29 08:15:00
10:45 AM,68.0,62.6,83,30.04,5.0,WNW,8.1,-,N/A,,Scattered Clouds,290,2013-08-29 08:45:00
11:01 AM,68.0,62.6,83,30.04,5.0,WNW,9.2,-,N/A,Rain,Light Rain Showers,300,2013-08-29 09:01:00
11:15 AM,69.8,60.8,73,30.04,5.0,WNW,6.9,-,N/A,,Scattered Clouds,300,2013-08-29 09:15:00
11:45 AM,73.4,59.0,61,30.04,6.2,North,11.5,-,N/A,,Scattered Clouds,350,2013-08-29 09:45:00
12:15 PM,73.4,59.0,61,30.04,6.2,NNW,11.5,-,N/A,,Scattered Clouds,330,2013-08-29 10:15:00
12:45 PM,71.6,59.0,64,30.04,6.2,NNW,11.5,-,N/A,,Scattered Clouds,330,2013-08-29 10:45:00
1:45 PM,75.2,57.2,53,30.04,6.2,NNW,6.9,-,N/A,,Scattered Clouds,340,2013-08-29 11:45:00
2:00 PM,75,57,43,30.02,9,NNW,6.7,,,,Partly Cloudy,340,2013-08-29 12:00:00
2:15 PM,75.2,57.2,53,30.04,6.2,NNW,8.1,-,N/A,,Scattered Clouds,330,2013-08-29 12:15:00
2:45 PM,75.2,55.4,50,30.04,6.2,NW,9.2,-,N/A,,Scattered Clouds,320,2013-08-29 12:45:00
3:15 PM,77.0,55.4,47,30.04,6.2,NNW,9.2,-,N/A,,Scattered Clouds,330,2013-08-29 13:15:00
3:45 PM,75.2,55.4,50,30.01,6.2,NNW,6.9,-,N/A,,Partly Cloudy,330,2013-08-29 13:45:00
4:15 PM,73.4,57.2,57,30.01,6.2,North,10.4,-,N/A,Rain,Light Rain Showers,10,2013-08-29 14:15:00
4:45 PM,75.2,55.4,50,30.01,6.2,North,5.8,-,N/A,,Partly Cloudy,10,2013-08-29 14:45:00
5:15 PM,73.4,57.2,57,30.01,6.2,NE,8.1,-,N/A,,Partly Cloudy,40,2013-08-29 15:15:00
5:45 PM,73.4,57.2,57,30.01,6.2,NNE,10.4,-,N/A,,Partly Cloudy,30,2013-08-29 15:45:00
6:15 PM,71.6,57.2,60,30.04,6.2,NNE,8.1,-,N/A,,Partly Cloudy,30,2013-08-29 16:15:00
6:45 PM,71.6,55.4,57,30.04,6.2,NNE,4.6,-,N/A,,Partly Cloudy,20,2013-08-29 16:45:00
7:15 PM,69.8,57.2,64,30.04,6.2,NNE,5.8,-,N/A,,Scattered Clouds,30,2013-08-29 17:15:00
7:20 PM,69.8,59.0,68,30.04,6.2,NNE,4.6,-,N/A,Thunderstorm,Thunderstorm,30,2013-08-29 17:20:00
7:45 PM,68.0,57.2,68,30.06,6.2,North,4.6,-,N/A,Rain,Light Rain Showers,10,2013-08-29 17:45:00
8:00 PM,69,58,59,30.04,11,North,4.5,,,Rain,Light Rain Showers,10,2013-08-29 18:00:00
8:15 PM,64.4,59.0,83,30.06,6.2,NNW,10.4,-,N/A,Rain,Light Rain Showers,330,2013-08-29 18:15:00
8:45 PM,64.4,59.0,83,30.06,6.2,North,8.1,-,N/A,Rain,Light Rain Showers,10,2013-08-29 18:45:00
9:15 PM,64.4,59.0,83,30.06,6.2,North,5.8,-,N/A,,Scattered Clouds,10,2013-08-29 19:15:00
9:45 PM,62.6,59.0,88,30.09,6.2,North,4.6,-,N/A,,Scattered Clouds,360,2013-08-29 19:45:00
10:45 PM,62.6,59.0,88,30.09,6.2,WNW,6.9,-,N/A,,Scattered Clouds,300,2013-08-29 20:45:00
11:45 PM,60.8,59.0,94,30.09,-9999.0,NNW,4.6,-,N/A,,Clear,340,2013-08-29 21:45:00